| time (UTC) | temp C | wind direction | speed KPH | gust KPH | rain 1hr cm | rain 24hr cm | rain mn cm | humidity % | barometer mb |
| 20260507070017 | 3 | 309 | 0.0 | 0.0 | 0.00 | 1.22 | 0.00 | 95 | 1012.6 |
| 20260507064516 | 3 | 309 | 0.0 | 0.0 | 0.00 | 1.60 | 0.00 | 95 | 1012.4 |
| 20260507063016 | 4 | 310 | 0.0 | 0.0 | 0.00 | 1.60 | 0.00 | 95 | 1012.3 |
| 20260507061512 | 4 | 309 | 0.0 | 0.0 | 0.00 | 1.60 | 0.00 | 94 | 1012.3 |
| 20260507060011 | 4 | 309 | 0.0 | 0.0 | 0.00 | 1.60 | 0.00 | 94 | 1012.5 |
| 20260507054509 | 5 | 309 | 0.0 | 0.0 | 0.00 | 1.85 | 0.00 | 94 | 1012.7 |
| 20260507053006 | 5 | 310 | 0.0 | 0.0 | 0.00 | 1.85 | 0.00 | 94 | 1012.8 |
| 20260507051505 | 5 | 311 | 0.0 | 0.0 | 0.00 | 1.85 | 0.00 | 93 | 1012.8 |
| 20260507050003 | 5 | 311 | 0.0 | 0.0 | 0.00 | 1.85 | 0.00 | 93 | 1013.1 |
| 20260507044501 | 5 | 311 | 0.0 | 0.0 | 0.00 | 1.98 | 0.00 | 94 | 1012.9 |
| 20260507043127 | 5 | 150 | 0.0 | 0.0 | 0.00 | 1.98 | 0.00 | 95 | 1012.9 |
| 20260507041601 | 5 | 86 | 0.0 | 0.0 | 0.00 | 1.98 | 0.00 | 95 | 1012.8 |
| 20260507040056 | 5 | 110 | 0.0 | 0.0 | 0.00 | 1.98 | 0.00 | 96 | 1012.7 |
| 20260507034556 | 5 | 101 | 0.0 | 0.0 | 0.00 | 2.06 | 1.98 | 96 | 1012.6 |
| 20260507033054 | 5 | 144 | 0.0 | 0.0 | 0.00 | 2.06 | 1.98 | 96 | 1012.8 |
| 20260507031553 | 5 | 164 | 0.0 | 0.0 | 0.00 | 2.06 | 1.98 | 96 | 1012.5 |
| 20260507030052 | 5 | 164 | 0.0 | 0.0 | 0.00 | 2.06 | 1.98 | 96 | 1012.5 |
| 20260507024555 | 5 | 175 | 0.0 | 0.0 | 0.00 | 2.11 | 1.98 | 96 | 1012.3 |
| 20260507023104 | 5 | 169 | 0.0 | 0.0 | 0.00 | 2.11 | 1.98 | 96 | 1012.4 |
| 20260507021551 | 5 | 202 | 0.0 | 0.0 | 0.00 | 2.11 | 1.98 | 96 | 1012.4 |
| 20260507020057 | 5 | 193 | 0.0 | 0.0 | 0.00 | 2.11 | 1.98 | 96 | 1012.6 |
| 20260507014549 | 5 | 160 | 0.0 | 0.0 | 0.00 | 2.21 | 1.98 | 95 | 1012.5 |
| 20260507013048 | 5 | 154 | 0.0 | 0.0 | 0.00 | 2.21 | 1.98 | 95 | 1012.3 |
| 20260507011549 | 5 | 336 | 0.0 | 0.0 | 0.03 | 2.21 | 1.98 | 95 | 1012.5 |
| 20260507010046 | 6 | 271 | 0.0 | 0.0 | 0.08 | 2.21 | 1.98 | 95 | 1012.3 |
| 20260507004544 | 6 | 14 | 0.0 | 0.0 | 0.13 | 2.29 | 1.98 | 95 | 1012.1 |
| 20260507003041 | 6 | 360 | 0.0 | 0.0 | 0.18 | 2.29 | 1.98 | 94 | 1011.3 |
| 20260507001605 | 6 | 25 | 0.0 | 0.0 | 0.20 | 2.26 | 1.96 | 93 | 1011.4 |
| 20260507000042 | 7 | 312 | 0.0 | 8.0 | 0.20 | 2.21 | 1.91 | 92 | 1011.4 |
| 20260506234535 | 7 | 66 | 0.0 | 0.0 | 0.15 | 2.31 | 1.85 | 93 | 1010.9 |
| 20260506233133 | 8 | 66 | 0.0 | 0.0 | 0.10 | 2.26 | 1.80 | 91 | 1010.7 |
| 20260506231531 | 8 | 66 | 0.0 | 0.0 | 0.05 | 2.21 | 1.75 | 90 | 1010.4 |
| 20260506230048 | 8 | 66 | 0.0 | 0.0 | 0.00 | 2.16 | 1.70 | 88 | 1010.2 |
| 20260506224529 | 8 | 66 | 0.0 | 0.0 | 0.00 | 2.29 | 1.70 | 86 | 1010.0 |
| 20260506223032 | 8 | 66 | 0.0 | 0.0 | 0.00 | 2.29 | 1.70 | 86 | 1010.0 |
| 20260506221528 | 8 | 60 | 0.0 | 0.0 | 0.00 | 2.29 | 1.70 | 85 | 1009.9 |
| 20260506220034 | 8 | 60 | 0.0 | 0.0 | 0.00 | 2.29 | 1.70 | 86 | 1009.9 |
| 20260506214527 | 8 | 60 | 0.0 | 0.0 | 0.00 | 2.29 | 1.70 | 85 | 1009.6 |
| 20260506213027 | 8 | 74 | 0.0 | 0.0 | 0.00 | 2.29 | 1.70 | 84 | 1009.7 |
| 20260506211526 | 8 | 75 | 0.0 | 0.0 | 0.00 | 2.29 | 1.70 | 83 | 1009.8 |
| 20260506210044 | 8 | 89 | 0.0 | 0.0 | 0.00 | 2.29 | 1.70 | 83 | 1009.8 |
| 20260506204522 | 8 | 54 | 0.0 | 0.0 | 0.00 | 2.29 | 1.70 | 82 | 1009.8 |
| 20260506203020 | 8 | 56 | 0.0 | 0.0 | 0.00 | 2.29 | 1.70 | 83 | 1009.8 |
| 20260506201522 | 8 | 53 | 0.0 | 0.0 | 0.00 | 2.29 | 1.70 | 84 | 1009.7 |
| 20260506200020 | 8 | 32 | 0.0 | 0.0 | 0.00 | 2.29 | 1.70 | 84 | 1009.9 |
| 20260506194518 | 8 | 328 | 0.0 | 0.0 | 0.00 | 2.29 | 1.70 | 85 | 1009.8 |
| 20260506193022 | 8 | 329 | 0.0 | 0.0 | 0.00 | 2.29 | 1.70 | 88 | 1009.9 |
| 20260506191515 | 7 | 76 | 0.0 | 0.0 | 0.00 | 2.29 | 1.70 | 88 | 1009.6 |
| 20260506190015 | 7 | 8 | 0.0 | 0.0 | 0.00 | 2.29 | 1.70 | 89 | 1009.9 |
| 20260506184512 | 7 | 72 | 0.0 | 0.0 | 0.00 | 2.29 | 1.70 | 91 | 1010.0 |
| 20260506183012 | 6 | 242 | 0.0 | 0.0 | 0.00 | 2.29 | 1.70 | 93 | 1009.9 |
| 20260506181512 | 6 | 18 | 0.0 | 0.0 | 0.00 | 2.29 | 1.70 | 93 | 1009.8 |
| 20260506180011 | 6 | 11 | 0.0 | 0.0 | 0.00 | 2.29 | 1.70 | 94 | 1010.2 |
| 20260506174507 | 6 | 56 | 0.0 | 0.0 | 0.00 | 2.29 | 1.70 | 94 | 1009.9 |
| 20260506173005 | 6 | 342 | 0.0 | 0.0 | 0.00 | 2.29 | 1.70 | 94 | 1009.6 |
| 20260506171504 | 7 | 12 | 0.0 | 0.0 | 0.00 | 2.29 | 1.70 | 95 | 1009.1 |
| 20260506170003 | 6 | 5 | 0.0 | 0.0 | 0.00 | 2.29 | 1.70 | 95 | 1009.1 |
| 20260506164511 | 6 | 53 | 0.0 | 0.0 | 0.00 | 2.29 | 1.70 | 95 | 1009.1 |
| 20260506163006 | 6 | 317 | 0.0 | 0.0 | 0.00 | 2.29 | 1.70 | 95 | 1009.2 |
| 20260506161502 | 6 | 52 | 0.0 | 0.0 | 0.00 | 2.29 | 1.70 | 96 | 1009.1 |
| 20260506160000 | 6 | 32 | 0.0 | 0.0 | 0.00 | 2.29 | 1.70 | 96 | 1009.1 |
| 20260506154601 | 6 | 18 | 0.0 | 0.0 | 0.00 | 2.29 | 1.70 | 96 | 1009.2 |
| 20260506153059 | 6 | 307 | 0.0 | 0.0 | 0.00 | 2.29 | 1.70 | 96 | 1009.1 |
| 20260506151604 | 6 | 46 | 0.0 | 0.0 | 0.00 | 2.29 | 1.70 | 97 | 1008.9 |
| 20260506150107 | 6 | 75 | 0.0 | 0.0 | 0.03 | 2.29 | 1.70 | 97 | 1009.0 |
| 20260506144557 | 6 | 65 | 0.0 | 0.0 | 0.03 | 2.29 | 1.70 | 97 | 1008.7 |
| 20260506143059 | 6 | 47 | 0.0 | 0.0 | 0.05 | 2.29 | 1.70 | 97 | 1008.6 |
| 20260506141556 | 6 | 68 | 0.0 | 0.0 | 0.05 | 2.29 | 1.70 | 97 | 1008.5 |
| 20260506140056 | 6 | 66 | 0.0 | 0.0 | 0.03 | 2.26 | 1.68 | 97 | 1008.5 |
| 20260506134555 | 6 | 75 | 0.0 | 0.0 | 0.05 | 2.26 | 1.68 | 97 | 1008.6 |
| 20260506133108 | 6 | 71 | 0.0 | 0.0 | 0.03 | 2.24 | 1.65 | 97 | 1008.6 |
| 20260506131614 | 6 | 72 | 0.0 | 0.0 | 0.03 | 2.24 | 1.65 | 97 | 1008.4 |
| 20260506130054 | 6 | 46 | 0.0 | 0.0 | 0.05 | 2.24 | 1.65 | 97 | 1008.4 |
| 20260506124553 | 6 | 89 | 0.0 | 0.0 | 0.08 | 2.21 | 1.63 | 97 | 1008.3 |
| 20260506123052 | 6 | 71 | 0.0 | 0.0 | 0.08 | 2.21 | 1.63 | 97 | 1008.5 |
| 20260506121556 | 6 | 80 | 0.0 | 0.0 | 0.10 | 2.21 | 1.63 | 97 | 1008.3 |
| 20260506120100 | 6 | 75 | 0.0 | 0.0 | 0.08 | 2.18 | 1.60 | 97 | 1008.5 |
| 20260506114548 | 6 | 76 | 0.0 | 0.0 | 0.05 | 2.13 | 1.55 | 97 | 1008.4 |
| 20260506113047 | 6 | 75 | 0.0 | 0.0 | 0.08 | 2.13 | 1.55 | 97 | 1008.2 |
| 20260506111547 | 6 | 76 | 0.0 | 0.0 | 0.10 | 2.11 | 1.52 | 97 | 1008.0 |
| 20260506110052 | 6 | 54 | 0.0 | 4.8 | 0.15 | 2.11 | 1.52 | 97 | 1008.0 |
| 20260506104556 | 6 | 64 | 0.0 | 0.0 | 0.18 | 2.08 | 1.50 | 97 | 1008.1 |
| 20260506103045 | 6 | 66 | 0.0 | 0.0 | 0.20 | 2.06 | 1.45 | 97 | 1008.3 |
| 20260506101540 | 6 | 72 | 0.0 | 0.0 | 0.18 | 2.01 | 1.42 | 97 | 1008.3 |
| 20260506100042 | 6 | 29 | 0.0 | 0.0 | 0.15 | 1.96 | 1.37 | 97 | 1008.3 |
| 20260506094537 | 6 | 353 | 0.0 | 0.0 | 0.13 | 1.91 | 1.32 | 97 | 1008.6 |
| 20260506093035 | 6 | 16 | 0.0 | 0.0 | 0.10 | 1.85 | 1.27 | 97 | 1008.2 |
| 20260506091536 | 6 | 72 | 0.0 | 0.0 | 0.10 | 1.83 | 1.24 | 97 | 1008.0 |
| 20260506090035 | 7 | 76 | 0.0 | 0.0 | 0.13 | 1.80 | 1.22 | 97 | 1007.7 |
| 20260506084608 | 7 | 70 | 0.0 | 0.0 | 0.18 | 1.78 | 1.19 | 97 | 1007.9 |
| 20260506083036 | 7 | 4 | 0.0 | 0.0 | 0.25 | 1.75 | 1.17 | 97 | 1008.4 |
| 20260506081540 | 7 | 78 | 0.0 | 0.0 | 0.30 | 1.73 | 1.14 | 97 | 1008.0 |
| 20260506073028 | 7 | 52 | 0.0 | 0.0 | 0.28 | 1.52 | 0.91 | 97 | 1008.4 |
| 20260506071528 | 7 | 76 | 0.0 | 0.0 | 0.30 | 1.42 | 0.84 | 97 | 1007.9 |